Tracking 19800 objects as of 24-Jul-2019
HD Live streaming from Space Station
objects crossing your sky now

EKRAN 2 DEB

Track EKRAN 2 DEB now!


NORAD ID: 29014
Int'l Code: 1977-092K
Perigee: 35,759.4 km
Apogee: 35,898.6 km
Inclination: 10.2 °
Period: 1,437.9 minutes
Semi major axis: 42199 km
RCS: 1 m2 (large)
Launch date: September 20, 1977
Source: Commonwealth of Independent States (former USSR) (CIS)
Launch site: TYURATAM MISSILE AND SPACE COMPLEX (TTMTR)

Note: This is SATELLITE DEBRIS
aabbcc
Your satellite tracking list
Your tracking list is empty




NASA's NSSDC Master Catalog

Two Line Element Set (TLE):
1 29014U 77092K   19204.09621904  .00000026  00000-0  00000+0 0  9995
2 29014  10.2489 307.1793 0016486 275.4149 119.7144  1.00146218 59328
Source of the keplerian elements: AFSPC